Toledo Metcalf, OH

8:37 PM EST on December 14, 2017 (GMT -0500)
Metcalf

Weather History for KTDZ - September, 2012

Change the Weather History Date:

Saturday, September 8, 2012

  Actual Average (KTOL) Record (KTOL)
Temperature  
Mean Temperature 64 °F -  
Max Temperature 73 °F 78 °F 98 °F (1978)
Min Temperature 57 °F 54 °F 37 °F (1986)
Growing Degree Days 14 (Base 50)    
Moisture  
Dew Point 55 °F    
Average Humidity 77    
Maximum Humidity 94    
Minimum Humidity 46    
Precipitation  
Precipitation 0.40 in - - ()
Sea Level Pressure  
Sea Level Pressure 29.74 in    
Wind  
Wind Speed 11 mph (WNW)    
Max Wind Speed 20 mph    
Max Gust Speed 28 mph    
Visibility 9 miles    
Events Rain    
Averages and records for this station are not official NWS values.
T = Trace of Precipitation, MM = Missing Value Source: NWS Daily Summary

Daily Weather History Graph

Daily Weather History Graph

Search for Another Location

Airport or City:

Trip Planner

Search our weather history database for the weather conditions in past years. The results will help you decide how hot, cold, wet, or windy it might be!

Date:

Astronomy

Sep. 08, 2012 Rise Set
Actual Time 7:07 AM EDT 7:54 PM EDT
Civil Twilight 6:39 AM EDT 8:22 PM EDT
Nautical Twilight 6:06 AM EDT 8:55 PM EDT
Astronomical Twilight 5:31 AM EDT 9:30 PM EDT
Moon No Moon Rise 2:54 PM EDT (9/8)
Length of Visible Light 13h 42m
Length of Day
12h 46m
Waning Gibbous, 49% of the Moon is Illuminated
Sep 8
Waning Gibbous
Sep 15
New
Sep 22
First Quarter
Sep 29
Full
Oct 8
Last Quarter

Hourly Weather History & Observations

Time (EDT) Temp. Dew Point Humidity Pressure Visibility Wind Dir Wind Speed Gust Speed Precip Events Conditions
12:53 AM 68.0 °F 66.0 °F 93% 29.68 in 6.0 mi West 5.8 mph - 0.08 in Rain Light Rain
1:53 AM 66.9 °F 64.9 °F 93% 29.65 in 7.0 mi WNW 4.6 mph - 0.08 in Rain Light Rain
2:08 AM 66.2 °F 64.4 °F 94% 29.66 in 8.0 mi NNW 11.5 mph 16.1 mph 0.01 in Rain Light Rain
2:53 AM 63.0 °F 61.0 °F 93% 29.64 in 6.0 mi North 8.1 mph - 0.04 in Rain Light Rain
3:53 AM 62.1 °F 60.1 °F 93% 29.64 in 10.0 mi NNW 17.3 mph 23.0 mph 0.06 in Rain Light Rain
4:18 AM 60.8 °F 57.2 °F 88% 29.66 in 10.0 mi NNW 15.0 mph - 0.00 in   Overcast
4:28 AM 60.8 °F 59.0 °F 94% 29.66 in 4.0 mi NNW 11.5 mph - 0.01 in Rain Rain
4:37 AM 60.8 °F 57.2 °F 88% 29.66 in 4.0 mi NNW 11.5 mph - 0.03 in Rain Light Rain
4:53 AM 59.0 °F 57.0 °F 93% 29.67 in 7.0 mi NW 18.4 mph 24.2 mph 0.04 in Rain Light Rain
5:06 AM 59.0 °F 57.2 °F 94% 29.66 in 5.0 mi NNW 11.5 mph - 0.02 in Rain Rain
5:53 AM 57.9 °F 55.9 °F 93% 29.66 in 10.0 mi NW 13.8 mph - 0.06 in Rain Light Rain
6:13 AM 57.2 °F 55.4 °F 94% 29.69 in 9.0 mi NW 11.5 mph - 0.02 in Rain Light Rain
6:43 AM 57.2 °F 55.4 °F 94% 29.71 in 10.0 mi WNW 11.5 mph - 0.03 in Rain Light Rain
6:53 AM 57.9 °F 55.9 °F 93% 29.69 in 10.0 mi NW 9.2 mph - 0.03 in Rain Light Rain
7:23 AM 57.2 °F 55.4 °F 94% 29.71 in 10.0 mi NW 6.9 mph - 0.01 in   Mostly Cloudy
7:53 AM 57.9 °F 55.9 °F 93% 29.73 in 10.0 mi WNW 10.4 mph 18.4 mph 0.01 in   Mostly Cloudy
8:53 AM 57.9 °F 55.0 °F 90% 29.75 in 10.0 mi WNW 13.8 mph - N/A   Scattered Clouds
9:03 AM 57.2 °F 53.6 °F 88% 29.76 in 10.0 mi NW 17.3 mph 27.6 mph N/A   Mostly Cloudy
9:40 AM 59.0 °F 53.6 °F 82% 29.76 in 10.0 mi NW 13.8 mph 20.7 mph N/A   Mostly Cloudy
10:28 AM 62.6 °F 55.4 °F 77% 29.78 in 10.0 mi NW 18.4 mph 21.9 mph N/A   Scattered Clouds
10:53 AM 64.0 °F 55.0 °F 73% 29.77 in 10.0 mi NW 10.4 mph - N/A   Partly Cloudy
11:53 AM 66.9 °F 52.0 °F 59% 29.78 in 10.0 mi WNW 16.1 mph - N/A   Clear
12:53 PM 69.1 °F 52.0 °F 54% 29.77 in 10.0 mi WNW 13.8 mph - N/A   Scattered Clouds
1:53 PM 70.0 °F 50.0 °F 49% 29.77 in 10.0 mi WNW 19.6 mph 27.6 mph N/A   Partly Cloudy
2:53 PM 72.0 °F 50.0 °F 46% 29.78 in 10.0 mi WNW 16.1 mph - N/A   Partly Cloudy
3:53 PM 72.0 °F 50.0 °F 46% 29.78 in 10.0 mi WNW 13.8 mph - N/A   Mostly Cloudy
4:53 PM 71.1 °F 50.0 °F 47% 29.78 in 10.0 mi West 11.5 mph - N/A   Mostly Cloudy
5:53 PM 70.0 °F 52.0 °F 53% 29.79 in 10.0 mi West 6.9 mph - N/A   Overcast
6:53 PM 69.1 °F 51.1 °F 53% 29.79 in 10.0 mi West 10.4 mph - N/A   Overcast
7:53 PM 66.0 °F 51.1 °F 59% 29.81 in 10.0 mi West 8.1 mph - N/A   Mostly Cloudy
8:53 PM 64.0 °F 50.0 °F 60% 29.83 in 10.0 mi West 9.2 mph - N/A   Scattered Clouds
9:53 PM 62.1 °F 50.0 °F 65% 29.86 in 10.0 mi West 8.1 mph - N/A   Clear
10:53 PM 61.0 °F 51.1 °F 70% 29.87 in 10.0 mi West 6.9 mph - N/A   Clear
11:53 PM 57.9 °F 51.1 °F 78% 29.88 in 10.0 mi WSW 3.5 mph - N/A   Clear